Overview Statistics Trail Chart Weather Telemetry Raw packets
 

This is the latest recevied weather packets stored in our database for station/object W6MAF. If no packets are shown the sender has not sent any weather packets the latest 10 day(s).

<< 101 102 103 104 105 106 107 >>
Time Temp. Humidity Pressure Rain* Wind** Luminosity Snow
1787919561 23.89° C 21% - 0 mm 0 m/s - -
1787919263 23.89° C 21% - 0 mm 0 m/s - -
1787918965 23.89° C 21% - 0 mm 0.89 m/s, 221° - -
1787918669 23.89° C 20% - 0 mm 29.95 m/s, 208° - -
1787918668 23.89° C 20% - 0 mm 3.13 m/s, 208° - -
1787918370 23.89° C 19% - 0 mm 3.13 m/s, 226° - -
1787918069 23.89° C 18% - 0 mm 3.13 m/s, 211° - -
1787917771 23.89° C 17% - 0 mm 2.68 m/s, 215° - -
1787917473 24.44° C 17% - 0 mm 2.24 m/s, 191° - -
1787917176 24.44° C 17% - 0 mm 1.34 m/s, 169° - -
1787916878 23.89° C 17% - 0 mm 1.34 m/s, 179° - -
1787916580 23.89° C 17% - 0 mm 2.24 m/s, 204° - -
1787915981 23.89° C 17% - 0 mm 2.24 m/s, 188° - -
1787915684 23.33° C 17% - 0 mm 2.24 m/s, 197° - -
1787915386 23.33° C 17% - 0 mm 0.45 m/s, 127° - -
1787915088 23.33° C 18% - 0 mm 2.24 m/s, 193° - -
1787914792 23.33° C 17% - 0 mm 1.79 m/s, 194° - -
1787914791 23.33° C 17% - 0 mm 1.79 m/s, 194° - -
1787914490 23.33° C 17% - 0 mm 0 m/s - -
1787914192 23.33° C 16% - 0 mm 0 m/s - -
1787913894 23.89° C 16% - 0 mm 0 m/s - -
1787913596 23.89° C 16% - 0 mm 0 m/s - -
1787913299 23.89° C 16% - 0 mm 0.45 m/s, 173° - -
1787913001 23.89° C 16% - 0 mm 0 m/s - -
1787912780 23.89° C 16% - 0 mm 0 m/s - -

* Rain latest hour (hover to see other rain measurements)
** Current wind speed in m/s (hover to see current wind gust speed)